• In Czech Republic
  • List of Countries
  • For 7 days
  • Water Temperature
  • Satellite Maps
  • Weather Map
  • Weather Widgets
  • user-avatar
    Login

    Hourly Weather Papalotla

    Today, 20 November, Monday

    Time Temperature Precipitation Wind Pressure Humidity
    00:00 +9°C° 0 mm 2 mps 579 mmHg 85%
    01:00 +8°C° 0 mm 2 mps 578 mmHg 84%
    02:00 +8°C° 0 mm 2 mps 578 mmHg 84%
    03:00 +8°C° 0 mm 2 mps 578 mmHg 83%
    04:00 +8°C° 0 mm 2 mps 578 mmHg 82%
    05:00 +9°C° 0 mm 1 mps 578 mmHg 81%
    06:00 +11°C° 0 mm 1 mps 579 mmHg 71%
    07:00 +13°C° 0 mm 1 mps 580 mmHg 62%
    08:00 +15°C° 0 mm 1 mps 581 mmHg 52%
    09:00 +18°C° 0 mm 1 mps 581 mmHg 46%
    10:00 +18°C° 0 mm 2 mps 582 mmHg 40%
    11:00 +20°C° 0 mm 2 mps 582 mmHg 34%
    12:00 +21°C° 0 mm 2 mps 582 mmHg 34%
    13:00 +21°C° 0 mm 3 mps 582 mmHg 33%
    14:00 +21°C° 0 mm 3 mps 581 mmHg 33%
    15:00 +19°C° 0 mm 3 mps 580 mmHg 40%
    16:00 +18°C° 0 mm 2 mps 579 mmHg 48%
    17:00 +16°C° 0 mm 2 mps 578 mmHg 56%
    18:00 +15°C° 0 mm 2 mps 578 mmHg 60%
    19:00 +14°C° 0 mm 1 mps 579 mmHg 64%
    20:00 +13°C° 0 mm 1 mps 579 mmHg 68%
    21:00 +13°C° 0 mm 1 mps 578 mmHg 69%
    22:00 +12°C° 0 mm 1 mps 578 mmHg 70%
    23:00 +12°C° 0 mm 1 mps 578 mmHg 70%

    Tomorrow, 21 November, Tuesday

    Time Temperature Precipitation Wind Pressure Humidity
    00:00 +12°C° 0 mm 1 mps 578 mmHg 71%
    01:00 +11°C° 0 mm 1 mps 577 mmHg 72%
    02:00 +11°C° 0 mm 1 mps 577 mmHg 73%
    03:00 +11°C° 0 mm 1 mps 577 mmHg 74%
    04:00 +10°C° 0 mm 1 mps 577 mmHg 75%
    05:00 +10°C° 0 mm 1 mps 576 mmHg 75%
    06:00 +12°C° 0 mm 1 mps 577 mmHg 69%
    07:00 +14°C° 0 mm 1 mps 578 mmHg 62%
    08:00 +16°C° 0 mm 1 mps 579 mmHg 55%
    09:00 +17°C° 0 mm 2 mps 580 mmHg 49%
    10:00 +19°C° 0 mm 2 mps 580 mmHg 43%
    11:00 +20°C° 0 mm 3 mps 581 mmHg 37%
    12:00 +21°C° 0 mm 3 mps 580 mmHg 36%
    13:00 +21°C° 0 mm 3 mps 580 mmHg 36%
    14:00 +21°C° 0 mm 4 mps 580 mmHg 35%
    15:00 +19°C° 0 mm 3 mps 579 mmHg 42%
    16:00 +18°C° 0 mm 3 mps 578 mmHg 49%
    17:00 +16°C° 0 mm 2 mps 578 mmHg 56%
    18:00 +15°C° 0 mm 1 mps 578 mmHg 60%
    19:00 +14°C° 0 mm 1 mps 578 mmHg 65%
    20:00 +12°C° 0 mm 0 mps 578 mmHg 70%
    21:00 +13°C° 0 mm 1 mps 578 mmHg 70%
    22:00 +12°C° 0 mm 1 mps 578 mmHg 70%
    23:00 +12°C° 0 mm 1 mps 578 mmHg 70%

    Day after tomorrow, 22 November, Wednesday

    Time Temperature Precipitation Wind Pressure Humidity
    00:00 +12°C° 0 mm 1 mps 577 mmHg 71%
    01:00 +11°C° 0 mm 1 mps 577 mmHg 71%
    02:00 +11°C° 0 mm 1 mps 577 mmHg 72%
    03:00 +10°C° 0 mm 1 mps 577 mmHg 73%
    04:00 +10°C° 0 mm 1 mps 577 mmHg 75%
    05:00 +9°C° 0 mm 2 mps 577 mmHg 76%
    06:00 +10°C° 0 mm 2 mps 578 mmHg 69%
    07:00 +13°C° 0 mm 2 mps 579 mmHg 61%
    08:00 +13°C° 0 mm 3 mps 581 mmHg 54%
    09:00 +16°C° 0 mm 3 mps 581 mmHg 45%
    10:00 +18°C° 0 mm 3 mps 582 mmHg 35%
    11:00 +19°C° 0 mm 3 mps 582 mmHg 26%
    12:00 +19°C° 0 mm 3 mps 582 mmHg 28%
    13:00 +20°C° 0 mm 3 mps 582 mmHg 29%
    14:00 +20°C° 0 mm 3 mps 581 mmHg 31%
    15:00 +18°C° 0 mm 3 mps 580 mmHg 40%
    16:00 +16°C° 0 mm 3 mps 580 mmHg 49%
    17:00 +13°C° 0 mm 4 mps 579 mmHg 58%
    18:00 +12°C° 0 mm 4 mps 579 mmHg 63%
    19:00 +11°C° 0 mm 4 mps 579 mmHg 68%
    20:00 +10°C° 0 mm 4 mps 580 mmHg 73%
    21:00 +8°C° 0 mm 4 mps 579 mmHg 74%
    22:00 +8°C° 0 mm 4 mps 579 mmHg 76%
    23:00 +8°C° 0 mm 3 mps 579 mmHg 77%

    23 November, Thursday

    Time Temperature Precipitation Wind Pressure Humidity
    00:00 +8°C° 0 mm 3 mps 578 mmHg 78%
    01:00 +7°C° 0 mm 3 mps 578 mmHg 78%
    02:00 +7°C° 0 mm 3 mps 577 mmHg 79%
    03:00 +5°C° 0 mm 3 mps 577 mmHg 77%
    04:00 +5°C° 0 mm 3 mps 577 mmHg 75%
    05:00 +5°C° 0 mm 2 mps 577 mmHg 73%
    06:00 +7°C° 0 mm 2 mps 578 mmHg 64%
    07:00 +9°C° 0 mm 2 mps 579 mmHg 55%
    08:00 +12°C° 0 mm 2 mps 581 mmHg 45%
    09:00 +14°C° 0 mm 2 mps 581 mmHg 40%
    10:00 +16°C° 0 mm 2 mps 581 mmHg 34%
    11:00 +18°C° 0 mm 2 mps 582 mmHg 28%
    12:00 +18°C° 0 mm 2 mps 581 mmHg 28%
    13:00 +18°C° 0 mm 2 mps 581 mmHg 27%
    14:00 +19°C° 0 mm 2 mps 580 mmHg 27%
    15:00 +17°C° 0 mm 2 mps 580 mmHg 35%
    16:00 +15°C° 0 mm 2 mps 579 mmHg 42%
    17:00 +13°C° 0 mm 2 mps 578 mmHg 49%
    18:00 +13°C° 0 mm 2 mps 579 mmHg 56%
    19:00 +12°C° 0 mm 2 mps 579 mmHg 63%
    20:00 +10°C° 0 mm 2 mps 579 mmHg 70%
    21:00 +9°C° 0 mm 2 mps 579 mmHg 73%
    22:00 +9°C° 0 mm 2 mps 578 mmHg 75%
    23:00 +9°C° 0 mm 2 mps 578 mmHg 78%

    24 November, Friday

    Time Temperature Precipitation Wind Pressure Humidity
    00:00 +8°C° 0 mm 2 mps 578 mmHg 80%
    01:00 +9°C° 0 mm 1 mps 577 mmHg 81%
    02:00 +8°C° 0 mm 1 mps 577 mmHg 83%
    03:00 +8°C° 0 mm 1 mps 577 mmHg 83%
    04:00 +8°C° 0 mm 1 mps 577 mmHg 84%
    05:00 +8°C° 0 mm 1 mps 577 mmHg 84%
    06:00 +9°C° 0 mm 1 mps 578 mmHg 76%
    07:00 +11°C° 0 mm 1 mps 579 mmHg 69%
    08:00 +13°C° 0 mm 1 mps 580 mmHg 61%
    09:00 +14°C° 0 mm 1 mps 580 mmHg 53%
    10:00 +16°C° 0 mm 1 mps 581 mmHg 44%
    11:00 +19°C° 0 mm 1 mps 581 mmHg 36%
    12:00 +18°C° 0 mm 2 mps 581 mmHg 35%
    13:00 +19°C° 0 mm 2 mps 580 mmHg 35%
    14:00 +19°C° 0 mm 3 mps 580 mmHg 34%
    15:00 +18°C° 0 mm 2 mps 579 mmHg 41%
    16:00 +16°C° 0 mm 2 mps 579 mmHg 49%
    17:00 +14°C° 0 mm 2 mps 578 mmHg 56%
    18:00 +13°C° 0 mm 2 mps 578 mmHg 61%
    19:00 +12°C° 0 mm 1 mps 579 mmHg 66%
    20:00 +12°C° 0 mm 1 mps 579 mmHg 71%
    21:00 +11°C° 0 mm 1 mps 578 mmHg 72%
    22:00 +11°C° 0 mm 1 mps 578 mmHg 74%
    23:00 +10°C° 0 mm 1 mps 578 mmHg 75%

    25 November, Saturday

    Time Temperature Precipitation Wind Pressure Humidity
    00:00 +10°C° 0 mm 1 mps 577 mmHg 75%
    01:00 +10°C° 0 mm 1 mps 577 mmHg 75%
    02:00 +9°C° 0 mm 1 mps 577 mmHg 75%
    03:00 +9°C° 0 mm 1 mps 577 mmHg 75%
    04:00 +9°C° 0 mm 1 mps 577 mmHg 74%
    05:00 +8°C° 0 mm 1 mps 577 mmHg 74%
    06:00 +10°C° 0 mm 1 mps 578 mmHg 65%
    07:00 +12°C° 0 mm 1 mps 579 mmHg 57%
    08:00 +14°C° 0 mm 1 mps 580 mmHg 48%
    09:00 +16°C° 0 mm 1 mps 581 mmHg 41%
    10:00 +19°C° 0 mm 1 mps 581 mmHg 34%
    11:00 +20°C° 0 mm 2 mps 582 mmHg 28%
    12:00 +21°C° 0 mm 2 mps 582 mmHg 27%
    13:00 +21°C° 0 mm 2 mps 581 mmHg 27%
    14:00 +21°C° 0 mm 3 mps 581 mmHg 27%
    15:00 +19°C° 0 mm 2 mps 580 mmHg 35%
    16:00 +17°C° 0 mm 2 mps 580 mmHg 44%
    17:00 +15°C° 0 mm 2 mps 579 mmHg 52%
    18:00 +14°C° 0 mm 2 mps 579 mmHg 56%
    19:00 +14°C° 0 mm 1 mps 579 mmHg 61%
    20:00 +13°C° 0 mm 1 mps 579 mmHg 65%
    21:00 +12°C° 0 mm 1 mps 579 mmHg 65%
    22:00 +12°C° 0 mm 1 mps 579 mmHg 66%
    23:00 +11°C° 0 mm 1 mps 579 mmHg 66%
    Show more